Location: Wapato
(46.4478°N, 120.4212°W)
Time: 14:25:49
(UTC+00:00)

Explorer 7 - Pass Details

Date: 16 May 2026
Orbit: 426 x 534 km, 50.2° (Epoch: 8 June)

Event Time Altitude Azimuth Distance (km) Brightness Sun altitude
Rises 18:43:40 0° 289° (WNW) 2,574 10.0 58.8°
Reaches altitude 10° 18:46:02 10° 277° (W) 1,709 9.2 59.0°
Maximum altitude 18:49:22 27° 218° (SW) 995 8.7 59.3°
Drops below altitude 10° 18:52:46 10° 159° (SSE) 1,749 10.0 59.7°
Sets 18:55:13 0° 148° (SSE) 2,647 10.8 59.9°
